Regional Weather Roundup
Issued by NWS Midland/Odessa, TX

Home | Current Version | Previous Version | Text Only | Print | Product List | Glossary On
Versions: 1 2 3 4 5 6 7 8 9 10 11 12 13 14 15 16 17 18 19 20 21 22 23 24 25 26 27 28 29 30 31 32 33 34 35 36 37 38 39 40 41 42 43 44 45 46 47 48 49 50
000
ASUS44 KMAF 261310
RWRMAF
MIDLAND AREA WEATHER ROUNDUP
NATIONAL WEATHER SERVICE MIDLAND TX
700 AM CST WED NOV 26 2014

...IN SOUTHWEST TEXAS AND SOUTHEAST NEW MEXICO...

CITY           SKY/WX    TMP DP  RH WIND       PRES   REMARKS
ALPINE         CLEAR     44   7  21 SW13      30.32R WCI  38
ANDREWS        FAIR      44  12  28 W9        30.18R WCI  39
ARTESIA        NOT AVBL
BIG SPRING     PTCLDY    36  20  52 SE8       30.20R WCI  29
CARLSBAD       CLEAR     34  17  50 S5        30.19R WCI  30
DRYDEN           N/A     49  13  23 W14       30.21R
FORT STOCKTON  PTCLDY    47  11  23 SW13      30.22R
GUAD PASS      NOT AVBL
HOBBS          CLEAR     39  10  30 W10       30.18R WCI  32
MARFA          CLEAR     32   9  37 S8        30.31R WCI  25
MIDLAND AIRPK  CLEAR     43  15  32 W10       30.19R WCI  37
MIDLAND INTL   CLEAR     41  14  33 W14       30.19R WCI  33
ODESSA         CLEAR     38  13  35 W7        30.20R WCI  33
PECOS          CLEAR     46  11  24 CALM      30.21R
PRESIDIO       FAIR      35  17  47 N5        30.31R WCI  31
SEMINOLE       CLEAR     43  15  32 W10       30.17R WCI  37
SNYDER         CLEAR     34  21  58 W8        30.14R WCI  28
WINK           CLEAR     32  16  51 CALM      30.20R
$$
...OTHER STATIONS IN TEXAS...

CITY           SKY/WX    TMP DP  RH WIND       PRES   REMARKS
ABILENE        CLEAR     38  23  55 SW7       30.12R WCI  33
AMARILLO       CLEAR     32  28  85 NW8       30.20R WCI  25
AUSTIN         CLEAR     40  33  76 SW6       30.20R WCI  36
BROWNSVILLE    CLEAR     45  41  86 CALM      30.29S
CORPUS CHRISTI CLEAR     42  39  89 SW3       30.27R
DALLAS FTW     MOCLDY    40  28  62 SW8       30.06R WCI  34
DEL RIO        CLEAR     34  31  88 CALM      30.23R
EL PASO        PTCLDY    31  10  41 NE7       30.31R WCI  24
HOUSTON INT    CLEAR     47  40  76 SW6       30.22R
LUBBOCK        PTCLDY    41  19  41 N16       30.15R WCI  33
SAN ANGELO     CLEAR     40  20  44 W10       30.17R WCI  33
SAN ANTONIO    CLEAR     48  31  51 W9        30.22S
WACO           CLEAR     40  31  70 S10       30.11S WCI  33
WICHITA FALLS  NOT AVBL
$$
...OTHER LOCATIONS IN NEW MEXICO...

CITY           SKY/WX    TMP DP  RH WIND       PRES   REMARKS
ALAMAGORDO     PTCLDY    28   7  40 MISG      30.31R
ALBUQUERQUE    PTCLDY    29   7  39 SE7       30.35R WCI  22
CANNON AFB     PTCLDY    39  19  44 N16       30.18R WCI  30
CLOVIS         PTCLDY    37  18  44 N16       30.18R WCI  28
HOLLOMAN AFB   PTCLDY    26   6  43 SE3       30.30R
ROSWELL        PTCLDY    32  16  51 SW5       30.20R WCI  27
RUIDOSO        PTCLDY    41  18  38 NW12G18   30.32R WCI  34
SANTA FE       PTCLDY    34  15  46 NW10      30.28R WCI  26
TRUTH OR CONSE CLEAR     32   9  38 CALM      30.31S
TUCUMCARI      PTCLDY    34  25  69 NE8       30.22R WCI  27
$$


USA.gov is the U.S. government's official web portal to all federal, state and local government web resources and services.